User: anonymous   Login
Location: Unspecified
(0.0000°N, 0.0000°E)
Time: 03:14:50
(UTC+00:00)
Language:

Meteosat 2 - Orbit

View from above orbital plane
View from above orbital plane
View from above satellite
View from above satellite

Ground track
Ground track

The orbit data is extracted from the following two-line orbital elements,

1 12544U 81057A   24170.22569153 -.00000212  00000-0  00000-0 0  9990
2 12544  11.5090 324.2130 0026620   4.0749   5.5984  0.98726692116658
Epoch (UTC): 18 June 2024 05:24:59
Eccentricity: 0.0026620
inclination: 11.5090°
perigee height: 36111 km
apogee height: 36338 km
right ascension of ascending node: 324.2130°
argument of perigee: 4.0749°
revolutions per day: 0.98726692
mean anomaly at epoch: 5.5984°
orbit number at epoch: 11665

The dashed part of the orbit path shows where the satellite is in the earth's shadow,  

DLR